Regional Weather Roundup
Issued by NWS Lake Charles, LA

Home | Current Version | Previous Version | Text Only | Print | Product List | Glossary On
Versions: 1 2 3 4 5 6 7 8 9 10 11 12 13 14 15 16 17 18 19 20 21 22 23 24 25 26 27
000
ASUS44 KLCH 262010
RWRLCH
REGIONAL WEATHER ROUNDUP
NATIONAL WEATHER SERVICE LAKE CHARLES LA
300 PM CDT WED JUL 26 2017

Note: "fair" indicates few or no clouds below 12,000 feet with no
significant weather and/or obstructions to visibility.


ACROSS SOUTHEAST TEXAS

CITY           SKY/WX    TMP DP  RH WIND       PRES   REMARKS
BEAUMONT       MOSUNNY   93  75  55 S12       30.08F HX 104
BEAUMONT CITY  MOCLDY    91  76  61 MISG      30.08F HX 102
ORANGE         CLEAR     92  76  59 S10       30.10F HX 104
JASPER           N/A     93  73  52 E3        30.10F HX 102
$$

ACROSS CENTRAL LOUISIANA

CITY           SKY/WX    TMP DP  RH WIND       PRES   REMARKS
LEESVILLE      SUNNY     92  73  53 SW7       30.08F HX 101
FULLERTON      MOCLDY    94  75  54 VRB5      30.06F HX 105
ALEXANDRIA INT SUNNY     93  73  52 SW5       30.07F HX 102
ESLER FIELD    SUNNY     94  74  52 S7        30.08F HX 104
DERIDDER       MOCLDY    93  73  52 SW7       30.10F HX 101
OAKDALE        CLEAR     92  73  52 CALM      30.09F HX 101
OPELOUSAS      FAIR      91  74  57 CALM      30.09F
$$

ACROSS SOUTHWEST AND SOUTH CENTRAL LOUISIANA

CITY           SKY/WX    TMP DP  RH WIND       PRES   REMARKS
SULPHUR        PTCLDY    92  74  54 S7        30.09F HX 102
LAKE CHARLES   SUNNY     92  75  57 S9        30.09F HX 103
CHENNAULT INT  NOT AVBL
CAMERON PHI    NOT AVBL
DEQUINCY       FAIR      93  73  52 S6        30.08F HX 102
JENNINGS       FAIR      92  74  56 CALM      30.09F HX 102
LAFAYETTE      MOSUNNY   94  74  52 W5        30.09F HX 104
NEW IBERIA     MOSUNNY   95  73  48 CALM      30.10F HX 104
ABBEVILLE      FAIR      91  75  59 S5        30.09F HX 102
PATTERSON      SUNNY     92  72  51 NE5       30.10F
SALT POINT       N/A     91  78  65 VRB5      30.08F HX 106
$$

SELECTED SITES ACROSS THE REGION

CITY           SKY/WX    TMP DP  RH WIND       PRES   REMARKS
HOUSTON BUSH   PTSUNNY   95  73  48 S5        30.05F HX 104
HOUSTON HOBBY  PTSUNNY   96  71  44 SE12      30.05F THUNDER HX 103
GALVESTON      MOSUNNY   89  78  70 SE10      30.09F HX 103
COLLEGE STAT   MOSUNNY   97  69  40 SW7       30.04F HX 103
CONROE         MOSUNNY   95  71  45 SW6       30.07F HX 102
HUNTSVILLE     MOSUNNY   94  68  42 SW6       30.07F
LUFKIN         MOSUNNY   93  72  50 W3        30.07F HX 101
SHREVEPORT     PTSUNNY   94  74  52 SW9       30.06F HX 104
MONROE         SUNNY     95  72  47 CALM      30.07F HX 103
NATCHEZ MS     SUNNY     91  69  48 CALM      30.10F
BATON ROUGE    SUNNY     95  69  42 VRB5      30.09F HX 100
N.O. INTL ARPT PTSUNNY   91  71  51 N5        30.09F
SLIDELL        CLOUDY    94  73  50 N5        30.07F HX 103
$$

MARINE REPORTS

STATION/POSITION TIME  SKY/WX   TEMP    WIND        PRES    VSBY
                                AIR SEA DIR/SP/G
                 (UTC)          (F)     (DEG/KT/KT) (MB)    (MI)
BUOY 30 S HIGH I 1850            85 87  220/  4/  6 1019.6
WVE H/P(F/S)=  2/ 6

SEA RIM ST PARK  1900            87     210/  9/ 11 1020.0F
PORT ARTHUR      1948            89 86  200/  7/ 12 1019.1F
SABINE PASS N    1942            88 88  190/  8/ 13 1020.7F
TEXAS POINT      NOT AVBL
CALCASIEU PASS   1948               88  210/  6/  8 1018.7F
LK CHARLES BEACH 1948            91 85              1019.4F
MARSH ISLAND     NOT AVBL
FRESH WATER LOCK 1948            86 87  190/  7/ 11 1019.6F
AMERADA PASS     1948            89 90  200/  1/  3 1019.3F
$$




USA.gov is the U.S. government's official web portal to all federal, state and local government web resources and services.